This is the latest recevied weather packets stored in our database for station/object PY2VE-13. If no packets are shown the sender has not sent any weather packets the latest 10 day(s).
| Time | Temp. | Humidity | Pressure | Rain* | Wind** | Luminosity | Snow |
|---|---|---|---|---|---|---|---|
| 1778217541 | 24.44° C | 49% | 1017.8 hPa | - | - | - | - |
| 1778216641 | 25° C | 48% | 1017.8 hPa | - | - | - | - |
| 1778215741 | 25° C | 48% | 1017.8 hPa | - | - | - | - |
| 1778214841 | 25.56° C | 47% | 1017.9 hPa | - | - | - | - |
| 1778213941 | 25.56° C | 46% | 1017.7 hPa | - | - | - | - |
| 1778213041 | 25.56° C | 47% | 1017.9 hPa | - | - | - | - |
| 1778212141 | 25.56° C | 46% | 1017.9 hPa | - | - | - | - |
| 1778211240 | 25.56° C | 46% | 1017.8 hPa | - | - | - | - |
| 1778210340 | 26.11° C | 45% | 1017.8 hPa | - | - | - | - |
| 1778209441 | 25.56° C | 46% | 1017.9 hPa | - | - | - | - |
| 1778208541 | 26.11° C | 45% | 1017.8 hPa | - | - | - | - |
| 1778207640 | 25.56° C | 45% | 1017.9 hPa | - | - | - | - |
| 1778206740 | 26.11° C | 44% | 1017.7 hPa | - | - | - | - |
| 1778205840 | 26.11° C | 44% | 1017.8 hPa | - | - | - | - |
| 1778204940 | 26.11° C | 45% | 1017.8 hPa | - | - | - | - |
| 1778204040 | 26.11° C | 44% | 1017.7 hPa | - | - | - | - |
| 1778203140 | 26.67° C | 43% | 1017.8 hPa | - | - | - | - |
| 1778202240 | 26.67° C | 43% | 1017.9 hPa | - | - | - | - |
| 1778201340 | 26.67° C | 43% | 1017.9 hPa | - | - | - | - |
| 1778200440 | 26.67° C | 43% | 1017.8 hPa | - | - | - | - |
| 1778199540 | 27.22° C | 42% | 1017.7 hPa | - | - | - | - |
| 1778198640 | 27.22° C | 42% | 1017.7 hPa | - | - | - | - |
| 1778197740 | 27.22° C | 41% | 1017.4 hPa | - | - | - | - |
| 1778196840 | 27.22° C | 40% | 1017.5 hPa | - | - | - | - |
| 1778195940 | 28.33° C | 38% | 1017.1 hPa | - | - | - | - |
* Rain since midnight (hover to see other rain measurements)
** Current wind speed in m/s (hover to see current wind gust speed)